This is the latest recevied weather packets stored in our database for station/object NK2J. If no packets are shown the sender has not sent any weather packets the latest 10 day(s).
| Time | Temp. | Humidity | Pressure | Rain* | Wind** | Luminosity | Snow |
|---|---|---|---|---|---|---|---|
| 1777286512 | 12.78° C | 40% | 1014.1 hPa | 0 mm | - | 0 W/m² | - |
| 1777286204 | 12.78° C | 40% | 1014.4 hPa | 0 mm | - | 0 W/m² | - |
| 1777285901 | 13.33° C | 40% | 1014.6 hPa | 0 mm | - | 0 W/m² | - |
| 1777285598 | 13.33° C | 40% | 1014.2 hPa | 0 mm | - | 0 W/m² | - |
| 1777285296 | 12.78° C | 40% | 1014.3 hPa | 0 mm | - | 0 W/m² | - |
| 1777284993 | 13.33° C | 41% | 1014.1 hPa | 0 mm | - | 0 W/m² | - |
| 1777284690 | 13.33° C | 42% | 1014.2 hPa | 0 mm | - | 0 W/m² | - |
| 1777284387 | 13.89° C | 42% | 1014.1 hPa | 0 mm | - | 0 W/m² | - |
| 1777284083 | 14.44° C | 43% | 1013.9 hPa | 0 mm | - | 0 W/m² | - |
| 1777283781 | 14.44° C | 41% | 1014.1 hPa | 0 mm | - | 0 W/m² | - |
| 1777283478 | 14.44° C | 41% | 1014 hPa | 0 mm | - | 0 W/m² | - |
| 1777283171 | 13.89° C | 43% | 1013.9 hPa | 0 mm | - | 0 W/m² | - |
| 1777282869 | 13.89° C | 44% | 1013.9 hPa | 0 mm | - | 0 W/m² | - |
| 1777282563 | 14.44° C | 43% | 1014 hPa | 0 mm | - | 0 W/m² | - |
| 1777282260 | 15° C | 42% | 1014.1 hPa | 0 mm | - | 0 W/m² | - |
| 1777281958 | 15° C | 40% | 1013.8 hPa | 0 mm | - | 0 W/m² | - |
| 1777281655 | 15.56° C | 40% | 1013.9 hPa | 0 mm | - | 0 W/m² | - |
| 1777281352 | 15° C | 40% | 1013.9 hPa | 0 mm | - | 0 W/m² | - |
| 1777281048 | 15° C | 42% | 1013.9 hPa | 0 mm | - | 0 W/m² | - |
| 1777280746 | 15.56° C | 39% | 1013.9 hPa | 0 mm | - | 0 W/m² | - |
| 1777280442 | 15.56° C | 38% | 1014 hPa | 0 mm | - | 0 W/m² | - |
| 1777280138 | 15.56° C | 40% | 1014.1 hPa | 0 mm | - | 0 W/m² | - |
| 1777279835 | 15.56° C | 39% | 1014.1 hPa | 0 mm | - | 0 W/m² | - |
| 1777279533 | 15.56° C | 39% | 1014 hPa | 0 mm | - | 0 W/m² | - |
| 1777279229 | 15.56° C | 40% | 1014.1 hPa | 0 mm | - | 0 W/m² | - |
* Rain latest hour (hover to see other rain measurements)
** Current wind speed in m/s (hover to see current wind gust speed)